Location: Bernay
(48.6766°N, 2.9386°E)
Time: 01:46:06
(UTC+00:00)

SJ 16-02 - Pass Details

Date: 25 April 2026
Orbit: 582 x 592 km, 75.0° (Epoch: 19 May)

Event Time Altitude Azimuth Distance (km) Brightness Sun altitude
Rises 21:56:11 0° 333° (NNW) 2,822 6.2 -23.3°
Reaches altitude 10° 21:58:27 10° 328° (NNW) 1,915 5.0 -23.5°
Maximum altitude 22:02:32 46° 255° (WSW) 789 1.9 -23.8°
Enters shadow 22:02:43 46° 247° (WSW) 792 1.8 -23.8°
